Papa, Hungary

8:25 AM CEST on October 19, 2017 (GMT +0200)
Papa

Weather History for LHPA - November, 2012

Change the Weather History Date:

Friday, November 16, 2012

  Actual Average Record
Temperature  
Mean Temperature 44 °F -  
Max Temperature 48 °F - - ()
Min Temperature 41 °F - - ()
Degree Days  
Heating Degree Days 20    
Moisture  
Dew Point 41 °F    
Average Humidity 86    
Maximum Humidity 100    
Minimum Humidity 76    
Precipitation  
Precipitation 0.00 in - - ()
Sea Level Pressure  
Sea Level Pressure 30.25 in    
Wind  
Wind Speed 4 mph ()    
Max Wind Speed 9 mph    
Max Gust Speed -    
Visibility 4.0 miles    
Events      
T = Trace of Precipitation, MM = Missing Value Source: Averaged Metar Reports

Daily Weather History Graph

Daily Weather History Graph

Search for Another Location

Airport or City:

Trip Planner

Search our weather history database for the weather conditions in past years. The results will help you decide how hot, cold, wet, or windy it might be!

Date:

Astronomy

Nov. 16, 2012 Rise Set
Actual Time 6:55 AM CET 4:13 PM CET
Civil Twilight 6:22 AM CET 4:46 PM CET
Nautical Twilight 5:45 AM CET 5:24 PM CET
Astronomical Twilight 5:08 AM CET 6:00 PM CET
Moon 9:37 AM CET (11/16) 6:48 PM CET (11/16)
Length of Visible Light 10h 24m
Length of Day
9h 17m
Waxing Crescent, 9% of the Moon is Illuminated
Nov 16
Waxing Crescent
Nov 20
First Quarter
Nov 28
Full
Dec 6
Last Quarter
Dec 13
New

Hourly Weather History & Observations

Time (CET) Temp. Windchill Dew Point Humidity Pressure Visibility Wind Dir Wind Speed Gust Speed Precip Events Conditions
12:15 AM 41.0 °F - 41.0 °F 100% 30.27 in 2.5 mi Calm Calm - N/A   Overcast
12:45 AM 41.0 °F - 41.0 °F 100% 30.27 in 2.5 mi SSE 2.2 mph - N/A   Overcast
1:15 AM 42.8 °F - 42.8 °F 100% 30.27 in 2.5 mi SSE 2.2 mph - N/A   Overcast
1:45 AM 42.8 °F - 41.0 °F 93% 30.27 in 2.5 mi SSE 2.2 mph - N/A   Overcast
2:15 AM 42.8 °F 40.2 °F 41.0 °F 93% 30.27 in 2.5 mi SSE 4.5 mph - N/A   Mostly Cloudy
2:41 AM 44.6 °F 40.8 °F 39.2 °F 81% 30.27 in 3.1 mi South 6.7 mph - N/A   Mostly Cloudy
2:45 AM 44.6 °F 42.3 °F 39.2 °F 81% 30.27 in 3.1 mi SSE 4.5 mph - N/A   Mostly Cloudy
3:15 AM 44.6 °F 42.3 °F 39.2 °F 81% 30.27 in 3.1 mi South 4.5 mph - N/A   Mostly Cloudy
3:45 AM 44.6 °F 40.8 °F 39.2 °F 81% 30.24 in 3.1 mi South 6.7 mph - N/A   Mostly Cloudy
4:15 AM 42.8 °F 40.2 °F 39.2 °F 87% 30.24 in 3.1 mi SSE 4.5 mph - N/A   Mostly Cloudy
4:45 AM 42.8 °F 40.2 °F 39.2 °F 87% 30.24 in 3.1 mi SSE 4.5 mph - N/A   Mostly Cloudy
5:15 AM 42.8 °F - 39.2 °F 87% 30.24 in 3.1 mi ESE 2.2 mph - N/A   Mostly Cloudy
5:45 AM - - - N/A% - 3.7 mi SSE 6.7 mph - N/A   Mostly Cloudy
6:15 AM 42.8 °F - 39.2 °F 87% 30.27 in 3.7 mi SSE 2.2 mph - N/A   Mostly Cloudy
6:45 AM 42.8 °F - 39.2 °F 87% 30.27 in 4.3 mi SSE 2.2 mph - N/A   Mostly Cloudy
7:15 AM 42.8 °F - 39.2 °F 87% 30.27 in 4.3 mi SE 2.2 mph - N/A   Mostly Cloudy
7:45 AM 42.8 °F 40.2 °F 41.0 °F 93% 30.27 in 3.7 mi SSE 4.5 mph - N/A   Mostly Cloudy
8:15 AM 42.8 °F 40.2 °F 41.0 °F 93% 30.27 in 3.7 mi SSE 4.5 mph - N/A   Mostly Cloudy
8:45 AM - - - N/A% - 3.7 mi SSE 8.9 mph - N/A   Scattered Clouds
9:15 AM 44.6 °F 40.8 °F 41.0 °F 87% 30.27 in 3.7 mi SSE 6.7 mph - N/A   Mostly Cloudy
9:45 AM 46.4 °F 43.0 °F 41.0 °F 81% 30.27 in 3.7 mi SSE 6.7 mph - N/A   Mostly Cloudy
10:15 AM 46.4 °F 42.0 °F 42.8 °F 87% 30.30 in 4.3 mi SSE 8.9 mph - N/A   Mostly Cloudy
10:45 AM 46.4 °F 43.0 °F 41.0 °F 81% 30.30 in 4.3 mi SSE 6.7 mph - N/A   Mostly Cloudy
11:15 AM 46.4 °F 42.0 °F 41.0 °F 81% 30.27 in 4.3 mi SSE 8.9 mph - N/A   Mostly Cloudy
11:45 AM - - - N/A% - 3.7 mi SSE 8.9 mph - N/A   Overcast
12:15 PM 48.2 °F - 41.0 °F 76% 30.27 in 5.0 mi South 4.5 mph - N/A   Mostly Cloudy
12:45 PM 48.2 °F - 42.8 °F 82% 30.27 in 6.2 mi South 4.5 mph - N/A   Mostly Cloudy
1:15 PM 48.2 °F - 42.8 °F 82% 30.24 in 6.2 mi SSW 4.5 mph - N/A   Mostly Cloudy
1:45 PM 48.2 °F - 42.8 °F 82% 30.24 in 6.2 mi South 4.5 mph - N/A   Mostly Cloudy
2:15 PM 48.2 °F - 42.8 °F 82% 30.24 in 6.2 mi South 4.5 mph - N/A   Mostly Cloudy
3:15 PM 48.2 °F - 41.0 °F 76% 30.24 in 6.2 mi SE 6.7 mph - N/A   Mostly Cloudy
3:45 PM 48.2 °F - 41.0 °F 76% 30.24 in 6.2 mi SSE 6.7 mph - N/A   Mostly Cloudy
4:15 PM 46.4 °F 44.4 °F 41.0 °F 81% 30.21 in 6.2 mi SE 4.5 mph - N/A   Mostly Cloudy
4:45 PM 44.6 °F 42.3 °F 41.0 °F 87% 30.24 in 5.0 mi SE 4.5 mph - N/A   Mostly Cloudy
5:15 PM 42.8 °F 40.2 °F 41.0 °F 93% 30.24 in 5.0 mi SE 4.5 mph - N/A   Mostly Cloudy
5:45 PM - - - N/A% - 3.1 mi SE 4.5 mph - N/A   Mostly Cloudy
6:15 PM 44.6 °F 42.3 °F 41.0 °F 87% 30.24 in 5.0 mi SSE 4.5 mph - N/A   Mostly Cloudy
6:45 PM 44.6 °F 42.3 °F 41.0 °F 87% 30.24 in 5.0 mi SE 4.5 mph - N/A   Mostly Cloudy
7:15 PM 44.6 °F - 42.8 °F 93% 30.24 in 4.3 mi SE 2.2 mph - N/A   Mostly Cloudy
7:45 PM 44.6 °F 42.3 °F 42.8 °F 93% 30.24 in 3.7 mi SE 4.5 mph - N/A   Mostly Cloudy
8:15 PM 44.6 °F - 42.8 °F 93% 30.21 in 3.7 mi SSE 2.2 mph - N/A   Mostly Cloudy
8:45 PM - - - N/A% - 3.1 mi SE 4.5 mph - N/A   Mostly Cloudy
9:15 PM 46.4 °F 43.0 °F 41.0 °F 81% 30.21 in 3.7 mi SSE 6.7 mph - N/A   Mostly Cloudy
9:45 PM 46.4 °F 43.0 °F 41.0 °F 81% 30.21 in 3.7 mi SSE 6.7 mph - N/A   Mostly Cloudy
10:15 PM 46.4 °F 42.0 °F 41.0 °F 81% 30.21 in 3.7 mi SSE 8.9 mph - N/A   Mostly Cloudy
10:45 PM 46.4 °F 43.0 °F 41.0 °F 81% 30.21 in 3.7 mi SSE 6.7 mph - N/A   Mostly Cloudy
11:15 PM 46.4 °F 43.0 °F 41.0 °F 81% 30.21 in 3.7 mi SSE 6.7 mph - N/A   Mostly Cloudy
11:45 PM - - - N/A% - 3.1 mi North - - N/A   Mostly Cloudy